Index of /20260426/WXO-DD/model_rdps/10km/00/053
Name Last modified Size Description
Parent Directory -
20260426T00Z_MSC_RDPS_AbsoluteVorticity_IsbL-0250_RLatLon0.09_PT053H.grib2 2026-04-26 02:55 620K
20260426T00Z_MSC_RDPS_AbsoluteVorticity_IsbL-0500_RLatLon0.09_PT053H.grib2 2026-04-26 02:55 569K
20260426T00Z_MSC_RDPS_AbsoluteVorticity_IsbL-0700_RLatLon0.09_PT053H.grib2 2026-04-26 02:55 616K
20260426T00Z_MSC_RDPS_AbsoluteVorticity_IsbL-0850_RLatLon0.09_PT053H.grib2 2026-04-26 02:55 770K
20260426T00Z_MSC_RDPS_AirTemp_AGL-120m_RLatLon0.09_PT053H.grib2 2026-04-26 02:55 389K
20260426T00Z_MSC_RDPS_AirTemp_AGL-2m_RLatLon0.09_PT053H.grib2 2026-04-26 02:55 628K
20260426T00Z_MSC_RDPS_AirTemp_AGL-40m_RLatLon0.09_PT053H.grib2 2026-04-26 02:55 404K
20260426T00Z_MSC_RDPS_AirTemp_AGL-80m_RLatLon0.09_PT053H.grib2 2026-04-26 02:55 378K
20260426T00Z_MSC_RDPS_AirTemp_IsbL-0001_RLatLon0.09_PT053H.grib2 2026-04-26 02:55 252K
20260426T00Z_MSC_RDPS_AirTemp_IsbL-0005_RLatLon0.09_PT053H.grib2 2026-04-26 02:55 296K
20260426T00Z_MSC_RDPS_AirTemp_IsbL-0010_RLatLon0.09_PT053H.grib2 2026-04-26 02:55 307K
20260426T00Z_MSC_RDPS_AirTemp_IsbL-0020_RLatLon0.09_PT053H.grib2 2026-04-26 02:55 323K
20260426T00Z_MSC_RDPS_AirTemp_IsbL-0030_RLatLon0.09_PT053H.grib2 2026-04-26 02:55 339K
20260426T00Z_MSC_RDPS_AirTemp_IsbL-0050_RLatLon0.09_PT053H.grib2 2026-04-26 02:55 320K
20260426T00Z_MSC_RDPS_AirTemp_IsbL-0100_RLatLon0.09_PT053H.grib2 2026-04-26 02:55 432K
20260426T00Z_MSC_RDPS_AirTemp_IsbL-0150_RLatLon0.09_PT053H.grib2 2026-04-26 02:55 431K
20260426T00Z_MSC_RDPS_AirTemp_IsbL-0175_RLatLon0.09_PT053H.grib2 2026-04-26 02:55 421K
20260426T00Z_MSC_RDPS_AirTemp_IsbL-0200_RLatLon0.09_PT053H.grib2 2026-04-26 02:55 423K
20260426T00Z_MSC_RDPS_AirTemp_IsbL-0225_RLatLon0.09_PT053H.grib2 2026-04-26 02:55 423K
20260426T00Z_MSC_RDPS_AirTemp_IsbL-0250_RLatLon0.09_PT053H.grib2 2026-04-26 02:55 431K
20260426T00Z_MSC_RDPS_AirTemp_IsbL-0275_RLatLon0.09_PT053H.grib2 2026-04-26 02:55 412K
20260426T00Z_MSC_RDPS_AirTemp_IsbL-0300_RLatLon0.09_PT053H.grib2 2026-04-26 02:55 419K
20260426T00Z_MSC_RDPS_AirTemp_IsbL-0350_RLatLon0.09_PT053H.grib2 2026-04-26 02:55 430K
20260426T00Z_MSC_RDPS_AirTemp_IsbL-0400_RLatLon0.09_PT053H.grib2 2026-04-26 02:55 429K
20260426T00Z_MSC_RDPS_AirTemp_IsbL-0450_RLatLon0.09_PT053H.grib2 2026-04-26 02:55 434K
20260426T00Z_MSC_RDPS_AirTemp_IsbL-0500_RLatLon0.09_PT053H.grib2 2026-04-26 02:55 410K
20260426T00Z_MSC_RDPS_AirTemp_IsbL-0550_RLatLon0.09_PT053H.grib2 2026-04-26 02:55 427K
20260426T00Z_MSC_RDPS_AirTemp_IsbL-0600_RLatLon0.09_PT053H.grib2 2026-04-26 02:55 443K
20260426T00Z_MSC_RDPS_AirTemp_IsbL-0650_RLatLon0.09_PT053H.grib2 2026-04-26 02:55 455K
20260426T00Z_MSC_RDPS_AirTemp_IsbL-0700_RLatLon0.09_PT053H.grib2 2026-04-26 02:55 480K
20260426T00Z_MSC_RDPS_AirTemp_IsbL-0750_RLatLon0.09_PT053H.grib2 2026-04-26 02:55 406K
20260426T00Z_MSC_RDPS_AirTemp_IsbL-0800_RLatLon0.09_PT053H.grib2 2026-04-26 02:55 451K
20260426T00Z_MSC_RDPS_AirTemp_IsbL-0850_RLatLon0.09_PT053H.grib2 2026-04-26 02:55 498K
20260426T00Z_MSC_RDPS_AirTemp_IsbL-0875_RLatLon0.09_PT053H.grib2 2026-04-26 02:55 516K
20260426T00Z_MSC_RDPS_AirTemp_IsbL-0900_RLatLon0.09_PT053H.grib2 2026-04-26 02:55 532K
20260426T00Z_MSC_RDPS_AirTemp_IsbL-0925_RLatLon0.09_PT053H.grib2 2026-04-26 02:55 529K
20260426T00Z_MSC_RDPS_AirTemp_IsbL-0950_RLatLon0.09_PT053H.grib2 2026-04-26 02:55 531K
20260426T00Z_MSC_RDPS_AirTemp_IsbL-0970_RLatLon0.09_PT053H.grib2 2026-04-26 02:55 525K
20260426T00Z_MSC_RDPS_AirTemp_IsbL-0985_RLatLon0.09_PT053H.grib2 2026-04-26 02:55 514K
20260426T00Z_MSC_RDPS_AirTemp_IsbL-1000_RLatLon0.09_PT053H.grib2 2026-04-26 02:55 485K
20260426T00Z_MSC_RDPS_AirTemp_IsbL-1015_RLatLon0.09_PT053H.grib2 2026-04-26 02:55 485K
20260426T00Z_MSC_RDPS_Albedo_Sfc_RLatLon0.09_PT053H.grib2 2026-04-26 02:55 161K
20260426T00Z_MSC_RDPS_CAPE_Sfc_RLatLon0.09_PT053H.grib2 2026-04-26 02:55 1.6M
20260426T00Z_MSC_RDPS_CIN_Sfc_RLatLon0.09_PT053H.grib2 2026-04-26 02:55 1.1M
20260426T00Z_MSC_RDPS_CloudWater_EAtm_RLatLon0.09_PT053H.grib2 2026-04-26 02:55 219K
20260426T00Z_MSC_RDPS_ConvectivePrecip-Accum_Sfc_RLatLon0.09_PT053H.grib2 2026-04-26 02:55 1.1M
20260426T00Z_MSC_RDPS_DewPointDepression_AGL-2m_RLatLon0.09_PT053H.grib2 2026-04-26 02:55 389K
20260426T00Z_MSC_RDPS_DewPointDepression_IsbL-0001_RLatLon0.09_PT053H.grib2 2026-04-26 02:55 193
20260426T00Z_MSC_RDPS_DewPointDepression_IsbL-0005_RLatLon0.09_PT053H.grib2 2026-04-26 02:55 193
20260426T00Z_MSC_RDPS_DewPointDepression_IsbL-0010_RLatLon0.09_PT053H.grib2 2026-04-26 02:55 193
20260426T00Z_MSC_RDPS_DewPointDepression_IsbL-0020_RLatLon0.09_PT053H.grib2 2026-04-26 02:55 193
20260426T00Z_MSC_RDPS_DewPointDepression_IsbL-0030_RLatLon0.09_PT053H.grib2 2026-04-26 02:55 539
20260426T00Z_MSC_RDPS_DewPointDepression_IsbL-0050_RLatLon0.09_PT053H.grib2 2026-04-26 02:55 87K
20260426T00Z_MSC_RDPS_DewPointDepression_IsbL-0100_RLatLon0.09_PT053H.grib2 2026-04-26 02:55 129K
20260426T00Z_MSC_RDPS_DewPointDepression_IsbL-0150_RLatLon0.09_PT053H.grib2 2026-04-26 02:55 153K
20260426T00Z_MSC_RDPS_DewPointDepression_IsbL-0175_RLatLon0.09_PT053H.grib2 2026-04-26 02:55 183K
20260426T00Z_MSC_RDPS_DewPointDepression_IsbL-0200_RLatLon0.09_PT053H.grib2 2026-04-26 02:55 222K
20260426T00Z_MSC_RDPS_DewPointDepression_IsbL-0225_RLatLon0.09_PT053H.grib2 2026-04-26 02:55 264K
20260426T00Z_MSC_RDPS_DewPointDepression_IsbL-0250_RLatLon0.09_PT053H.grib2 2026-04-26 02:55 300K
20260426T00Z_MSC_RDPS_DewPointDepression_IsbL-0275_RLatLon0.09_PT053H.grib2 2026-04-26 02:55 309K
20260426T00Z_MSC_RDPS_DewPointDepression_IsbL-0300_RLatLon0.09_PT053H.grib2 2026-04-26 02:55 325K
20260426T00Z_MSC_RDPS_DewPointDepression_IsbL-0350_RLatLon0.09_PT053H.grib2 2026-04-26 02:55 329K
20260426T00Z_MSC_RDPS_DewPointDepression_IsbL-0400_RLatLon0.09_PT053H.grib2 2026-04-26 02:55 345K
20260426T00Z_MSC_RDPS_DewPointDepression_IsbL-0450_RLatLon0.09_PT053H.grib2 2026-04-26 02:55 356K
20260426T00Z_MSC_RDPS_DewPointDepression_IsbL-0500_RLatLon0.09_PT053H.grib2 2026-04-26 02:55 361K
20260426T00Z_MSC_RDPS_DewPointDepression_IsbL-0550_RLatLon0.09_PT053H.grib2 2026-04-26 02:55 371K
20260426T00Z_MSC_RDPS_DewPointDepression_IsbL-0600_RLatLon0.09_PT053H.grib2 2026-04-26 02:55 379K
20260426T00Z_MSC_RDPS_DewPointDepression_IsbL-0650_RLatLon0.09_PT053H.grib2 2026-04-26 02:55 387K
20260426T00Z_MSC_RDPS_DewPointDepression_IsbL-0700_RLatLon0.09_PT053H.grib2 2026-04-26 02:55 401K
20260426T00Z_MSC_RDPS_DewPointDepression_IsbL-0750_RLatLon0.09_PT053H.grib2 2026-04-26 02:55 422K
20260426T00Z_MSC_RDPS_DewPointDepression_IsbL-0800_RLatLon0.09_PT053H.grib2 2026-04-26 02:55 449K
20260426T00Z_MSC_RDPS_DewPointDepression_IsbL-0850_RLatLon0.09_PT053H.grib2 2026-04-26 02:55 474K
20260426T00Z_MSC_RDPS_DewPointDepression_IsbL-0875_RLatLon0.09_PT053H.grib2 2026-04-26 02:55 476K
20260426T00Z_MSC_RDPS_DewPointDepression_IsbL-0900_RLatLon0.09_PT053H.grib2 2026-04-26 02:55 467K
20260426T00Z_MSC_RDPS_DewPointDepression_IsbL-0925_RLatLon0.09_PT053H.grib2 2026-04-26 02:55 455K
20260426T00Z_MSC_RDPS_DewPointDepression_IsbL-0950_RLatLon0.09_PT053H.grib2 2026-04-26 02:55 442K
20260426T00Z_MSC_RDPS_DewPointDepression_IsbL-0970_RLatLon0.09_PT053H.grib2 2026-04-26 02:55 429K
20260426T00Z_MSC_RDPS_DewPointDepression_IsbL-0985_RLatLon0.09_PT053H.grib2 2026-04-26 02:55 423K
20260426T00Z_MSC_RDPS_DewPointDepression_IsbL-1000_RLatLon0.09_PT053H.grib2 2026-04-26 02:55 418K
20260426T00Z_MSC_RDPS_DewPointDepression_IsbL-1015_RLatLon0.09_PT053H.grib2 2026-04-26 02:55 410K
20260426T00Z_MSC_RDPS_DewPoint_AGL-2m_RLatLon0.09_PT053H.grib2 2026-04-26 02:55 304K
20260426T00Z_MSC_RDPS_DownwardLongwaveRadiationFlux-Accum_Sfc_RLatLon0.09_PT053H.grib2 2026-04-26 02:55 387K
20260426T00Z_MSC_RDPS_DownwardShortwaveRadiationFlux-Accum_NTAtm_RLatLon0.09_PT053H.grib2 2026-04-26 02:55 142K
20260426T00Z_MSC_RDPS_DownwardShortwaveRadiationFlux-Accum_Sfc_RLatLon0.09_PT053H.grib2 2026-04-26 02:55 575K
20260426T00Z_MSC_RDPS_FreezingRain-Accum1h_Sfc_RLatLon0.09_PT053H.grib2 2026-04-26 02:55 41K
20260426T00Z_MSC_RDPS_FreezingRain-Accum_Sfc_RLatLon0.09_PT053H.grib2 2026-04-26 02:55 142K
20260426T00Z_MSC_RDPS_GeopotentialHeight_IsbL-0001_RLatLon0.09_PT053H.grib2 2026-04-26 02:55 237K
20260426T00Z_MSC_RDPS_GeopotentialHeight_IsbL-0005_RLatLon0.09_PT053H.grib2 2026-04-26 02:55 338K
20260426T00Z_MSC_RDPS_GeopotentialHeight_IsbL-0010_RLatLon0.09_PT053H.grib2 2026-04-26 02:55 306K
20260426T00Z_MSC_RDPS_GeopotentialHeight_IsbL-0020_RLatLon0.09_PT053H.grib2 2026-04-26 02:55 305K
20260426T00Z_MSC_RDPS_GeopotentialHeight_IsbL-0030_RLatLon0.09_PT053H.grib2 2026-04-26 02:55 403K
20260426T00Z_MSC_RDPS_GeopotentialHeight_IsbL-0050_RLatLon0.09_PT053H.grib2 2026-04-26 02:55 341K
20260426T00Z_MSC_RDPS_GeopotentialHeight_IsbL-0100_RLatLon0.09_PT053H.grib2 2026-04-26 02:55 289K
20260426T00Z_MSC_RDPS_GeopotentialHeight_IsbL-0150_RLatLon0.09_PT053H.grib2 2026-04-26 02:55 231K
20260426T00Z_MSC_RDPS_GeopotentialHeight_IsbL-0175_RLatLon0.09_PT053H.grib2 2026-04-26 02:55 234K
20260426T00Z_MSC_RDPS_GeopotentialHeight_IsbL-0200_RLatLon0.09_PT053H.grib2 2026-04-26 02:55 267K
20260426T00Z_MSC_RDPS_GeopotentialHeight_IsbL-0225_RLatLon0.09_PT053H.grib2 2026-04-26 02:55 268K
20260426T00Z_MSC_RDPS_GeopotentialHeight_IsbL-0250_RLatLon0.09_PT053H.grib2 2026-04-26 02:55 269K
20260426T00Z_MSC_RDPS_GeopotentialHeight_IsbL-0275_RLatLon0.09_PT053H.grib2 2026-04-26 02:55 268K
20260426T00Z_MSC_RDPS_GeopotentialHeight_IsbL-0300_RLatLon0.09_PT053H.grib2 2026-04-26 02:55 268K
20260426T00Z_MSC_RDPS_GeopotentialHeight_IsbL-0350_RLatLon0.09_PT053H.grib2 2026-04-26 02:55 234K
20260426T00Z_MSC_RDPS_GeopotentialHeight_IsbL-0400_RLatLon0.09_PT053H.grib2 2026-04-26 02:55 229K
20260426T00Z_MSC_RDPS_GeopotentialHeight_IsbL-0450_RLatLon0.09_PT053H.grib2 2026-04-26 02:55 298K
20260426T00Z_MSC_RDPS_GeopotentialHeight_IsbL-0500_RLatLon0.09_PT053H.grib2 2026-04-26 02:55 292K
20260426T00Z_MSC_RDPS_GeopotentialHeight_IsbL-0550_RLatLon0.09_PT053H.grib2 2026-04-26 02:55 288K
20260426T00Z_MSC_RDPS_GeopotentialHeight_IsbL-0600_RLatLon0.09_PT053H.grib2 2026-04-26 02:55 286K
20260426T00Z_MSC_RDPS_GeopotentialHeight_IsbL-0650_RLatLon0.09_PT053H.grib2 2026-04-26 02:55 283K
20260426T00Z_MSC_RDPS_GeopotentialHeight_IsbL-0700_RLatLon0.09_PT053H.grib2 2026-04-26 02:55 253K
20260426T00Z_MSC_RDPS_GeopotentialHeight_IsbL-0750_RLatLon0.09_PT053H.grib2 2026-04-26 02:55 255K
20260426T00Z_MSC_RDPS_GeopotentialHeight_IsbL-0800_RLatLon0.09_PT053H.grib2 2026-04-26 02:55 343K
20260426T00Z_MSC_RDPS_GeopotentialHeight_IsbL-0850_RLatLon0.09_PT053H.grib2 2026-04-26 02:55 352K
20260426T00Z_MSC_RDPS_GeopotentialHeight_IsbL-0875_RLatLon0.09_PT053H.grib2 2026-04-26 02:55 355K
20260426T00Z_MSC_RDPS_GeopotentialHeight_IsbL-0900_RLatLon0.09_PT053H.grib2 2026-04-26 02:55 361K
20260426T00Z_MSC_RDPS_GeopotentialHeight_IsbL-0925_RLatLon0.09_PT053H.grib2 2026-04-26 02:55 365K
20260426T00Z_MSC_RDPS_GeopotentialHeight_IsbL-0950_RLatLon0.09_PT053H.grib2 2026-04-26 02:55 367K
20260426T00Z_MSC_RDPS_GeopotentialHeight_IsbL-0970_RLatLon0.09_PT053H.grib2 2026-04-26 02:55 373K
20260426T00Z_MSC_RDPS_GeopotentialHeight_IsbL-0985_RLatLon0.09_PT053H.grib2 2026-04-26 02:55 380K
20260426T00Z_MSC_RDPS_GeopotentialHeight_IsbL-1000_RLatLon0.09_PT053H.grib2 2026-04-26 02:55 391K
20260426T00Z_MSC_RDPS_GeopotentialHeight_IsbL-1015_RLatLon0.09_PT053H.grib2 2026-04-26 02:55 405K
20260426T00Z_MSC_RDPS_Humidex_Sfc_RLatLon0.09_PT053H.grib2 2026-04-26 02:55 2.3M
20260426T00Z_MSC_RDPS_IcePellets-Accum1h_Sfc_RLatLon0.09_PT053H.grib2 2026-04-26 02:55 9.3K
20260426T00Z_MSC_RDPS_IcePellets-Accum_Sfc_RLatLon0.09_PT053H.grib2 2026-04-26 02:55 38K
20260426T00Z_MSC_RDPS_KIndex_Sfc_RLatLon0.09_PT053H.grib2 2026-04-26 02:55 2.5M
20260426T00Z_MSC_RDPS_LatentHeatNetFlux_Sfc_RLatLon0.09_PT053H.grib2 2026-04-26 02:55 232K
20260426T00Z_MSC_RDPS_LiftedIndex-MU-VT_IsbL-0500_RLatLon0.09_PT053H.grib2 2026-04-26 02:55 2.4M
20260426T00Z_MSC_RDPS_NetLongwaveRadiationFlux-Accum_Sfc_RLatLon0.09_PT053H.grib2 2026-04-26 02:55 564K
20260426T00Z_MSC_RDPS_NetShortwaveRadiationFlux-Accum_Sfc_RLatLon0.09_PT053H.grib2 2026-04-26 02:55 577K
20260426T00Z_MSC_RDPS_PlanetaryBoundaryLayerHeight_Sfc_RLatLon0.09_PT053H.grib2 2026-04-26 02:55 1.1M
20260426T00Z_MSC_RDPS_Precip-Accum1h_Sfc_RLatLon0.09_PT053H.grib2 2026-04-26 02:55 1.2M
20260426T00Z_MSC_RDPS_Precip-Accum_Sfc_RLatLon0.09_PT053H.grib2 2026-04-26 02:55 2.1M
20260426T00Z_MSC_RDPS_PrecipRate_Sfc_RLatLon0.09_PT053H.grib2 2026-04-26 02:55 174K
20260426T00Z_MSC_RDPS_PrecipType-Instant_Sfc_RLatLon0.09_PT053H.grib2 2026-04-26 02:55 558K
20260426T00Z_MSC_RDPS_Pressure-Trend3h_Sfc_RLatLon0.09_PT053H.grib2 2026-04-26 02:55 1.2M
20260426T00Z_MSC_RDPS_Pressure_MSL_RLatLon0.09_PT053H.grib2 2026-04-26 02:55 292K
20260426T00Z_MSC_RDPS_Pressure_PVU-1.5_RLatLon0.09_PT053H.grib2 2026-04-26 02:55 2.3M
20260426T00Z_MSC_RDPS_Pressure_PVU-1_RLatLon0.09_PT053H.grib2 2026-04-26 02:55 2.4M
20260426T00Z_MSC_RDPS_Pressure_PVU-2_RLatLon0.09_PT053H.grib2 2026-04-26 02:55 2.4M
20260426T00Z_MSC_RDPS_Pressure_Sfc_RLatLon0.09_PT053H.grib2 2026-04-26 02:55 499K
20260426T00Z_MSC_RDPS_RadiativeTemp_Sfc_RLatLon0.09_PT053H.grib2 2026-04-26 02:55 301K
20260426T00Z_MSC_RDPS_Rain-Accum1h_Sfc_RLatLon0.09_PT053H.grib2 2026-04-26 02:55 588K
20260426T00Z_MSC_RDPS_Rain-Accum_Sfc_RLatLon0.09_PT053H.grib2 2026-04-26 02:55 1.6M
20260426T00Z_MSC_RDPS_RelativeHumidity_AGL-2m_RLatLon0.09_PT053H.grib2 2026-04-26 02:55 1.0M
20260426T00Z_MSC_RDPS_RelativeHumidity_IsbL-0010_RLatLon0.09_PT053H.grib2 2026-04-26 02:55 628K
20260426T00Z_MSC_RDPS_RelativeHumidity_IsbL-0020_RLatLon0.09_PT053H.grib2 2026-04-26 02:55 650K
20260426T00Z_MSC_RDPS_RelativeHumidity_IsbL-0030_RLatLon0.09_PT053H.grib2 2026-04-26 02:55 541K
20260426T00Z_MSC_RDPS_RelativeHumidity_IsbL-0050_RLatLon0.09_PT053H.grib2 2026-04-26 02:55 328K
20260426T00Z_MSC_RDPS_RelativeHumidity_IsbL-0100_RLatLon0.09_PT053H.grib2 2026-04-26 02:55 279K
20260426T00Z_MSC_RDPS_RelativeHumidity_IsbL-0150_RLatLon0.09_PT053H.grib2 2026-04-26 02:55 416K
20260426T00Z_MSC_RDPS_RelativeHumidity_IsbL-0175_RLatLon0.09_PT053H.grib2 2026-04-26 02:55 489K
20260426T00Z_MSC_RDPS_RelativeHumidity_IsbL-0200_RLatLon0.09_PT053H.grib2 2026-04-26 02:55 560K
20260426T00Z_MSC_RDPS_RelativeHumidity_IsbL-0225_RLatLon0.09_PT053H.grib2 2026-04-26 02:55 625K
20260426T00Z_MSC_RDPS_RelativeHumidity_IsbL-0250_RLatLon0.09_PT053H.grib2 2026-04-26 02:55 692K
20260426T00Z_MSC_RDPS_RelativeHumidity_IsbL-0275_RLatLon0.09_PT053H.grib2 2026-04-26 02:55 721K
20260426T00Z_MSC_RDPS_RelativeHumidity_IsbL-0300_RLatLon0.09_PT053H.grib2 2026-04-26 02:55 764K
20260426T00Z_MSC_RDPS_RelativeHumidity_IsbL-0350_RLatLon0.09_PT053H.grib2 2026-04-26 02:55 780K
20260426T00Z_MSC_RDPS_RelativeHumidity_IsbL-0400_RLatLon0.09_PT053H.grib2 2026-04-26 02:55 796K
20260426T00Z_MSC_RDPS_RelativeHumidity_IsbL-0450_RLatLon0.09_PT053H.grib2 2026-04-26 02:55 808K
20260426T00Z_MSC_RDPS_RelativeHumidity_IsbL-0500_RLatLon0.09_PT053H.grib2 2026-04-26 02:55 815K
20260426T00Z_MSC_RDPS_RelativeHumidity_IsbL-0550_RLatLon0.09_PT053H.grib2 2026-04-26 02:55 832K
20260426T00Z_MSC_RDPS_RelativeHumidity_IsbL-0600_RLatLon0.09_PT053H.grib2 2026-04-26 02:55 855K
20260426T00Z_MSC_RDPS_RelativeHumidity_IsbL-0650_RLatLon0.09_PT053H.grib2 2026-04-26 02:55 860K
20260426T00Z_MSC_RDPS_RelativeHumidity_IsbL-0700_RLatLon0.09_PT053H.grib2 2026-04-26 02:55 895K
20260426T00Z_MSC_RDPS_RelativeHumidity_IsbL-0750_RLatLon0.09_PT053H.grib2 2026-04-26 02:55 935K
20260426T00Z_MSC_RDPS_RelativeHumidity_IsbL-0800_RLatLon0.09_PT053H.grib2 2026-04-26 02:55 1.0M
20260426T00Z_MSC_RDPS_RelativeHumidity_IsbL-0850_RLatLon0.09_PT053H.grib2 2026-04-26 02:55 1.0M
20260426T00Z_MSC_RDPS_RelativeHumidity_IsbL-0875_RLatLon0.09_PT053H.grib2 2026-04-26 02:55 1.1M
20260426T00Z_MSC_RDPS_RelativeHumidity_IsbL-0900_RLatLon0.09_PT053H.grib2 2026-04-26 02:55 1.1M
20260426T00Z_MSC_RDPS_RelativeHumidity_IsbL-0925_RLatLon0.09_PT053H.grib2 2026-04-26 02:55 1.1M
20260426T00Z_MSC_RDPS_RelativeHumidity_IsbL-0950_RLatLon0.09_PT053H.grib2 2026-04-26 02:55 1.1M
20260426T00Z_MSC_RDPS_RelativeHumidity_IsbL-0970_RLatLon0.09_PT053H.grib2 2026-04-26 02:55 1.0M
20260426T00Z_MSC_RDPS_RelativeHumidity_IsbL-0985_RLatLon0.09_PT053H.grib2 2026-04-26 02:55 1.0M
20260426T00Z_MSC_RDPS_RelativeHumidity_IsbL-1000_RLatLon0.09_PT053H.grib2 2026-04-26 02:55 1.0M
20260426T00Z_MSC_RDPS_RelativeHumidity_IsbL-1015_RLatLon0.09_PT053H.grib2 2026-04-26 02:55 1.0M
20260426T00Z_MSC_RDPS_Runoff-Accum_Sfc_RLatLon0.09_PT053H.grib2 2026-04-26 02:55 71K
20260426T00Z_MSC_RDPS_SWEATIndex_Sfc_RLatLon0.09_PT053H.grib2 2026-04-26 02:55 2.4M
20260426T00Z_MSC_RDPS_SeeingIndex_EAtm_RLatLon0.09_PT053H.grib2 2026-04-26 02:55 1.0M
20260426T00Z_MSC_RDPS_SensibleHeatNetFlux_Sfc_RLatLon0.09_PT053H.grib2 2026-04-26 02:55 294K
20260426T00Z_MSC_RDPS_ShowalterIndex_IsbL-0500_RLatLon0.09_PT053H.grib2 2026-04-26 02:55 2.5M
20260426T00Z_MSC_RDPS_SkyTransparencyIndex_EAtm_RLatLon0.09_PT053H.grib2 2026-04-26 02:55 691K
20260426T00Z_MSC_RDPS_Snow-Accum1h_Sfc_RLatLon0.09_PT053H.grib2 2026-04-26 02:55 487K
20260426T00Z_MSC_RDPS_Snow-Accum_Sfc_RLatLon0.09_PT053H.grib2 2026-04-26 02:55 835K
20260426T00Z_MSC_RDPS_SnowDensity_Sfc_RLatLon0.09_PT053H.grib2 2026-04-26 02:55 185K
20260426T00Z_MSC_RDPS_SnowDepth_Sfc_RLatLon0.09_PT053H.grib2 2026-04-26 02:55 723K
20260426T00Z_MSC_RDPS_SoilTemp_DBS-0to10cm_RLatLon0.09_PT053H.grib2 2026-04-26 02:55 238K
20260426T00Z_MSC_RDPS_SoilTemp_Sfc_RLatLon0.09_PT053H.grib2 2026-04-26 02:55 259K
20260426T00Z_MSC_RDPS_SoilVolumetricIceContent_Sfc_RLatLon0.09_PT053H.grib2 2026-04-26 02:55 168K
20260426T00Z_MSC_RDPS_SoilVolumetricWaterContent_DBS-0to10cm_RLatLon0.09_PT053H.grib2 2026-04-26 02:55 261K
20260426T00Z_MSC_RDPS_SoilVolumetricWaterContent_DBS-0to1cm_RLatLon0.09_PT053H.grib2 2026-04-26 02:55 341K
20260426T00Z_MSC_RDPS_SpecificHumidity_AGL-120m_RLatLon0.09_PT053H.grib2 2026-04-26 02:55 479K
20260426T00Z_MSC_RDPS_SpecificHumidity_AGL-2m_RLatLon0.09_PT053H.grib2 2026-04-26 02:55 644K
20260426T00Z_MSC_RDPS_SpecificHumidity_AGL-40m_RLatLon0.09_PT053H.grib2 2026-04-26 02:55 484K
20260426T00Z_MSC_RDPS_SpecificHumidity_AGL-80m_RLatLon0.09_PT053H.grib2 2026-04-26 02:55 481K
20260426T00Z_MSC_RDPS_SpecificHumidity_IsbL-0001_RLatLon0.09_PT053H.grib2 2026-04-26 02:55 340K
20260426T00Z_MSC_RDPS_SpecificHumidity_IsbL-0005_RLatLon0.09_PT053H.grib2 2026-04-26 02:55 354K
20260426T00Z_MSC_RDPS_SpecificHumidity_IsbL-0010_RLatLon0.09_PT053H.grib2 2026-04-26 02:55 396K
20260426T00Z_MSC_RDPS_SpecificHumidity_IsbL-0020_RLatLon0.09_PT053H.grib2 2026-04-26 02:55 385K
20260426T00Z_MSC_RDPS_SpecificHumidity_IsbL-0030_RLatLon0.09_PT053H.grib2 2026-04-26 02:55 474K
20260426T00Z_MSC_RDPS_SpecificHumidity_IsbL-0050_RLatLon0.09_PT053H.grib2 2026-04-26 02:55 464K
20260426T00Z_MSC_RDPS_SpecificHumidity_IsbL-0100_RLatLon0.09_PT053H.grib2 2026-04-26 02:55 447K
20260426T00Z_MSC_RDPS_SpecificHumidity_IsbL-0150_RLatLon0.09_PT053H.grib2 2026-04-26 02:55 492K
20260426T00Z_MSC_RDPS_SpecificHumidity_IsbL-0175_RLatLon0.09_PT053H.grib2 2026-04-26 02:55 451K
20260426T00Z_MSC_RDPS_SpecificHumidity_IsbL-0200_RLatLon0.09_PT053H.grib2 2026-04-26 02:55 460K
20260426T00Z_MSC_RDPS_SpecificHumidity_IsbL-0225_RLatLon0.09_PT053H.grib2 2026-04-26 02:55 458K
20260426T00Z_MSC_RDPS_SpecificHumidity_IsbL-0250_RLatLon0.09_PT053H.grib2 2026-04-26 02:55 561K
20260426T00Z_MSC_RDPS_SpecificHumidity_IsbL-0275_RLatLon0.09_PT053H.grib2 2026-04-26 02:55 476K
20260426T00Z_MSC_RDPS_SpecificHumidity_IsbL-0300_RLatLon0.09_PT053H.grib2 2026-04-26 02:55 547K
20260426T00Z_MSC_RDPS_SpecificHumidity_IsbL-0350_RLatLon0.09_PT053H.grib2 2026-04-26 02:55 535K
20260426T00Z_MSC_RDPS_SpecificHumidity_IsbL-0400_RLatLon0.09_PT053H.grib2 2026-04-26 02:55 519K
20260426T00Z_MSC_RDPS_SpecificHumidity_IsbL-0450_RLatLon0.09_PT053H.grib2 2026-04-26 02:55 576K
20260426T00Z_MSC_RDPS_SpecificHumidity_IsbL-0500_RLatLon0.09_PT053H.grib2 2026-04-26 02:55 513K
20260426T00Z_MSC_RDPS_SpecificHumidity_IsbL-0550_RLatLon0.09_PT053H.grib2 2026-04-26 02:55 568K
20260426T00Z_MSC_RDPS_SpecificHumidity_IsbL-0600_RLatLon0.09_PT053H.grib2 2026-04-26 02:55 633K
20260426T00Z_MSC_RDPS_SpecificHumidity_IsbL-0650_RLatLon0.09_PT053H.grib2 2026-04-26 02:55 553K
20260426T00Z_MSC_RDPS_SpecificHumidity_IsbL-0700_RLatLon0.09_PT053H.grib2 2026-04-26 02:55 597K
20260426T00Z_MSC_RDPS_SpecificHumidity_IsbL-0750_RLatLon0.09_PT053H.grib2 2026-04-26 02:55 651K
20260426T00Z_MSC_RDPS_SpecificHumidity_IsbL-0800_RLatLon0.09_PT053H.grib2 2026-04-26 02:55 728K
20260426T00Z_MSC_RDPS_SpecificHumidity_IsbL-0850_RLatLon0.09_PT053H.grib2 2026-04-26 02:55 798K
20260426T00Z_MSC_RDPS_SpecificHumidity_IsbL-0875_RLatLon0.09_PT053H.grib2 2026-04-26 02:55 823K
20260426T00Z_MSC_RDPS_SpecificHumidity_IsbL-0900_RLatLon0.09_PT053H.grib2 2026-04-26 02:55 835K
20260426T00Z_MSC_RDPS_SpecificHumidity_IsbL-0925_RLatLon0.09_PT053H.grib2 2026-04-26 02:55 837K
20260426T00Z_MSC_RDPS_SpecificHumidity_IsbL-0950_RLatLon0.09_PT053H.grib2 2026-04-26 02:55 832K
20260426T00Z_MSC_RDPS_SpecificHumidity_IsbL-0970_RLatLon0.09_PT053H.grib2 2026-04-26 02:55 818K
20260426T00Z_MSC_RDPS_SpecificHumidity_IsbL-0985_RLatLon0.09_PT053H.grib2 2026-04-26 02:55 670K
20260426T00Z_MSC_RDPS_SpecificHumidity_IsbL-1000_RLatLon0.09_PT053H.grib2 2026-04-26 02:55 663K
20260426T00Z_MSC_RDPS_SpecificHumidity_IsbL-1015_RLatLon0.09_PT053H.grib2 2026-04-26 02:55 656K
20260426T00Z_MSC_RDPS_SpecificHumidity_Sfc_RLatLon0.09_PT053H.grib2 2026-04-26 02:55 293K
20260426T00Z_MSC_RDPS_StormRelativeHelicity_EtaL-10000_RLatLon0.09_PT053H.grib2 2026-04-26 02:55 1.1M
20260426T00Z_MSC_RDPS_StormSeverityIndex_EtaL-10000_RLatLon0.09_PT053H.grib2 2026-04-26 02:55 1.1M
20260426T00Z_MSC_RDPS_Thickness_IsbL-0850to0700_RLatLon0.09_PT053H.grib2 2026-04-26 02:55 175K
20260426T00Z_MSC_RDPS_Thickness_IsbL-1000to0500_RLatLon0.09_PT053H.grib2 2026-04-26 02:55 198K
20260426T00Z_MSC_RDPS_Thickness_IsbL-1000to0850_RLatLon0.09_PT053H.grib2 2026-04-26 02:55 182K
20260426T00Z_MSC_RDPS_TotalCloudCover_Sfc_RLatLon0.09_PT053H.grib2 2026-04-26 02:55 652K
20260426T00Z_MSC_RDPS_TotalTotalsIndex_Sfc_RLatLon0.09_PT053H.grib2 2026-04-26 02:55 2.4M
20260426T00Z_MSC_RDPS_UVIndex-ClearSky_Sfc_RLatLon0.09_PT053H.grib2 2026-04-26 02:55 96K
20260426T00Z_MSC_RDPS_UVIndex_Sfc_RLatLon0.09_PT053H.grib2 2026-04-26 02:55 164K
20260426T00Z_MSC_RDPS_UpwardLongwaveRadiationFlux_NTAtm_RLatLon0.09_PT053H.grib2 2026-04-26 02:55 488K
20260426T00Z_MSC_RDPS_UpwardShortwaveRadiationFlux_NTAtm_RLatLon0.09_PT053H.grib2 2026-04-26 02:55 140K
20260426T00Z_MSC_RDPS_VerticalVelocity_IsbL-0250_RLatLon0.09_PT053H.grib2 2026-04-26 02:55 583K
20260426T00Z_MSC_RDPS_VerticalVelocity_IsbL-0500_RLatLon0.09_PT053H.grib2 2026-04-26 02:55 542K
20260426T00Z_MSC_RDPS_VerticalVelocity_IsbL-0700_RLatLon0.09_PT053H.grib2 2026-04-26 02:55 592K
20260426T00Z_MSC_RDPS_VerticalVelocity_IsbL-0850_RLatLon0.09_PT053H.grib2 2026-04-26 02:55 688K
20260426T00Z_MSC_RDPS_VerticalWindShear_EtaL-6500_RLatLon0.09_PT053H.grib2 2026-04-26 02:55 1.1M
20260426T00Z_MSC_RDPS_WindChill_Sfc_RLatLon0.09_PT053H.grib2 2026-04-26 02:55 1.1M
20260426T00Z_MSC_RDPS_WindDir_AGL-10m_RLatLon0.09_PT053H.grib2 2026-04-26 02:55 963K
20260426T00Z_MSC_RDPS_WindDir_AGL-120m_RLatLon0.09_PT053H.grib2 2026-04-26 02:55 593K
20260426T00Z_MSC_RDPS_WindDir_AGL-40m_RLatLon0.09_PT053H.grib2 2026-04-26 02:55 629K
20260426T00Z_MSC_RDPS_WindDir_AGL-80m_RLatLon0.09_PT053H.grib2 2026-04-26 02:55 607K
20260426T00Z_MSC_RDPS_WindDir_IsbL-0001_RLatLon0.09_PT053H.grib2 2026-04-26 02:55 321K
20260426T00Z_MSC_RDPS_WindDir_IsbL-0005_RLatLon0.09_PT053H.grib2 2026-04-26 02:55 363K
20260426T00Z_MSC_RDPS_WindDir_IsbL-0010_RLatLon0.09_PT053H.grib2 2026-04-26 02:55 398K
20260426T00Z_MSC_RDPS_WindDir_IsbL-0020_RLatLon0.09_PT053H.grib2 2026-04-26 02:55 417K
20260426T00Z_MSC_RDPS_WindDir_IsbL-0030_RLatLon0.09_PT053H.grib2 2026-04-26 02:55 416K
20260426T00Z_MSC_RDPS_WindDir_IsbL-0050_RLatLon0.09_PT053H.grib2 2026-04-26 02:55 422K
20260426T00Z_MSC_RDPS_WindDir_IsbL-0100_RLatLon0.09_PT053H.grib2 2026-04-26 02:55 412K
20260426T00Z_MSC_RDPS_WindDir_IsbL-0150_RLatLon0.09_PT053H.grib2 2026-04-26 02:55 411K
20260426T00Z_MSC_RDPS_WindDir_IsbL-0175_RLatLon0.09_PT053H.grib2 2026-04-26 02:55 431K
20260426T00Z_MSC_RDPS_WindDir_IsbL-0200_RLatLon0.09_PT053H.grib2 2026-04-26 02:55 444K
20260426T00Z_MSC_RDPS_WindDir_IsbL-0225_RLatLon0.09_PT053H.grib2 2026-04-26 02:55 446K
20260426T00Z_MSC_RDPS_WindDir_IsbL-0250_RLatLon0.09_PT053H.grib2 2026-04-26 02:55 451K
20260426T00Z_MSC_RDPS_WindDir_IsbL-0275_RLatLon0.09_PT053H.grib2 2026-04-26 02:55 466K
20260426T00Z_MSC_RDPS_WindDir_IsbL-0300_RLatLon0.09_PT053H.grib2 2026-04-26 02:55 466K
20260426T00Z_MSC_RDPS_WindDir_IsbL-0350_RLatLon0.09_PT053H.grib2 2026-04-26 02:55 491K
20260426T00Z_MSC_RDPS_WindDir_IsbL-0400_RLatLon0.09_PT053H.grib2 2026-04-26 02:55 516K
20260426T00Z_MSC_RDPS_WindDir_IsbL-0450_RLatLon0.09_PT053H.grib2 2026-04-26 02:55 527K
20260426T00Z_MSC_RDPS_WindDir_IsbL-0500_RLatLon0.09_PT053H.grib2 2026-04-26 02:55 540K
20260426T00Z_MSC_RDPS_WindDir_IsbL-0550_RLatLon0.09_PT053H.grib2 2026-04-26 02:55 554K
20260426T00Z_MSC_RDPS_WindDir_IsbL-0600_RLatLon0.09_PT053H.grib2 2026-04-26 02:55 581K
20260426T00Z_MSC_RDPS_WindDir_IsbL-0650_RLatLon0.09_PT053H.grib2 2026-04-26 02:55 623K
20260426T00Z_MSC_RDPS_WindDir_IsbL-0700_RLatLon0.09_PT053H.grib2 2026-04-26 02:55 665K
20260426T00Z_MSC_RDPS_WindDir_IsbL-0750_RLatLon0.09_PT053H.grib2 2026-04-26 02:55 706K
20260426T00Z_MSC_RDPS_WindDir_IsbL-0800_RLatLon0.09_PT053H.grib2 2026-04-26 02:55 772K
20260426T00Z_MSC_RDPS_WindDir_IsbL-0850_RLatLon0.09_PT053H.grib2 2026-04-26 02:55 849K
20260426T00Z_MSC_RDPS_WindDir_IsbL-0875_RLatLon0.09_PT053H.grib2 2026-04-26 02:55 878K
20260426T00Z_MSC_RDPS_WindDir_IsbL-0900_RLatLon0.09_PT053H.grib2 2026-04-26 02:55 895K
20260426T00Z_MSC_RDPS_WindDir_IsbL-0925_RLatLon0.09_PT053H.grib2 2026-04-26 02:55 904K
20260426T00Z_MSC_RDPS_WindDir_IsbL-0950_RLatLon0.09_PT053H.grib2 2026-04-26 02:55 902K
20260426T00Z_MSC_RDPS_WindDir_IsbL-0970_RLatLon0.09_PT053H.grib2 2026-04-26 02:55 907K
20260426T00Z_MSC_RDPS_WindDir_IsbL-0985_RLatLon0.09_PT053H.grib2 2026-04-26 02:55 916K
20260426T00Z_MSC_RDPS_WindDir_IsbL-1000_RLatLon0.09_PT053H.grib2 2026-04-26 02:55 933K
20260426T00Z_MSC_RDPS_WindDir_IsbL-1015_RLatLon0.09_PT053H.grib2 2026-04-26 02:55 953K
20260426T00Z_MSC_RDPS_WindGust-Max_AGL-10m_RLatLon0.09_PT053H.grib2 2026-04-26 02:55 955K
20260426T00Z_MSC_RDPS_WindGust-Min_AGL-10m_RLatLon0.09_PT053H.grib2 2026-04-26 02:55 1.0M
20260426T00Z_MSC_RDPS_WindGust_AGL-10m_RLatLon0.09_PT053H.grib2 2026-04-26 02:55 942K
20260426T00Z_MSC_RDPS_WindSpeed_AGL-10m_RLatLon0.09_PT053H.grib2 2026-04-26 02:55 843K
20260426T00Z_MSC_RDPS_WindSpeed_AGL-120m_RLatLon0.09_PT053H.grib2 2026-04-26 02:55 550K
20260426T00Z_MSC_RDPS_WindSpeed_AGL-40m_RLatLon0.09_PT053H.grib2 2026-04-26 02:55 557K
20260426T00Z_MSC_RDPS_WindSpeed_AGL-80m_RLatLon0.09_PT053H.grib2 2026-04-26 02:55 553K
20260426T00Z_MSC_RDPS_WindSpeed_IsbL-0001_RLatLon0.09_PT053H.grib2 2026-04-26 02:55 252K
20260426T00Z_MSC_RDPS_WindSpeed_IsbL-0005_RLatLon0.09_PT053H.grib2 2026-04-26 02:55 304K
20260426T00Z_MSC_RDPS_WindSpeed_IsbL-0010_RLatLon0.09_PT053H.grib2 2026-04-26 02:55 409K
20260426T00Z_MSC_RDPS_WindSpeed_IsbL-0020_RLatLon0.09_PT053H.grib2 2026-04-26 02:55 331K
20260426T00Z_MSC_RDPS_WindSpeed_IsbL-0030_RLatLon0.09_PT053H.grib2 2026-04-26 02:55 323K
20260426T00Z_MSC_RDPS_WindSpeed_IsbL-0050_RLatLon0.09_PT053H.grib2 2026-04-26 02:55 358K
20260426T00Z_MSC_RDPS_WindSpeed_IsbL-0100_RLatLon0.09_PT053H.grib2 2026-04-26 02:55 484K
20260426T00Z_MSC_RDPS_WindSpeed_IsbL-0150_RLatLon0.09_PT053H.grib2 2026-04-26 02:55 384K
20260426T00Z_MSC_RDPS_WindSpeed_IsbL-0175_RLatLon0.09_PT053H.grib2 2026-04-26 02:55 413K
20260426T00Z_MSC_RDPS_WindSpeed_IsbL-0200_RLatLon0.09_PT053H.grib2 2026-04-26 02:55 449K
20260426T00Z_MSC_RDPS_WindSpeed_IsbL-0225_RLatLon0.09_PT053H.grib2 2026-04-26 02:55 453K
20260426T00Z_MSC_RDPS_WindSpeed_IsbL-0250_RLatLon0.09_PT053H.grib2 2026-04-26 02:55 457K
20260426T00Z_MSC_RDPS_WindSpeed_IsbL-0275_RLatLon0.09_PT053H.grib2 2026-04-26 02:55 474K
20260426T00Z_MSC_RDPS_WindSpeed_IsbL-0300_RLatLon0.09_PT053H.grib2 2026-04-26 02:55 472K
20260426T00Z_MSC_RDPS_WindSpeed_IsbL-0350_RLatLon0.09_PT053H.grib2 2026-04-26 02:55 483K
20260426T00Z_MSC_RDPS_WindSpeed_IsbL-0400_RLatLon0.09_PT053H.grib2 2026-04-26 02:55 469K
20260426T00Z_MSC_RDPS_WindSpeed_IsbL-0450_RLatLon0.09_PT053H.grib2 2026-04-26 02:55 466K
20260426T00Z_MSC_RDPS_WindSpeed_IsbL-0500_RLatLon0.09_PT053H.grib2 2026-04-26 02:55 463K
20260426T00Z_MSC_RDPS_WindSpeed_IsbL-0550_RLatLon0.09_PT053H.grib2 2026-04-26 02:55 580K
20260426T00Z_MSC_RDPS_WindSpeed_IsbL-0600_RLatLon0.09_PT053H.grib2 2026-04-26 02:55 590K
20260426T00Z_MSC_RDPS_WindSpeed_IsbL-0650_RLatLon0.09_PT053H.grib2 2026-04-26 02:55 610K
20260426T00Z_MSC_RDPS_WindSpeed_IsbL-0700_RLatLon0.09_PT053H.grib2 2026-04-26 02:55 674K
20260426T00Z_MSC_RDPS_WindSpeed_IsbL-0750_RLatLon0.09_PT053H.grib2 2026-04-26 02:55 701K
20260426T00Z_MSC_RDPS_WindSpeed_IsbL-0800_RLatLon0.09_PT053H.grib2 2026-04-26 02:55 747K
20260426T00Z_MSC_RDPS_WindSpeed_IsbL-0850_RLatLon0.09_PT053H.grib2 2026-04-26 02:55 807K
20260426T00Z_MSC_RDPS_WindSpeed_IsbL-0875_RLatLon0.09_PT053H.grib2 2026-04-26 02:55 785K
20260426T00Z_MSC_RDPS_WindSpeed_IsbL-0900_RLatLon0.09_PT053H.grib2 2026-04-26 02:55 801K
20260426T00Z_MSC_RDPS_WindSpeed_IsbL-0925_RLatLon0.09_PT053H.grib2 2026-04-26 02:55 861K
20260426T00Z_MSC_RDPS_WindSpeed_IsbL-0950_RLatLon0.09_PT053H.grib2 2026-04-26 02:55 863K
20260426T00Z_MSC_RDPS_WindSpeed_IsbL-0970_RLatLon0.09_PT053H.grib2 2026-04-26 02:55 864K
20260426T00Z_MSC_RDPS_WindSpeed_IsbL-0985_RLatLon0.09_PT053H.grib2 2026-04-26 02:55 859K
20260426T00Z_MSC_RDPS_WindSpeed_IsbL-1000_RLatLon0.09_PT053H.grib2 2026-04-26 02:55 851K
20260426T00Z_MSC_RDPS_WindSpeed_IsbL-1015_RLatLon0.09_PT053H.grib2 2026-04-26 02:55 843K
20260426T00Z_MSC_RDPS_WindU_AGL-10m_RLatLon0.09_PT053H.grib2 2026-04-26 02:55 434K
20260426T00Z_MSC_RDPS_WindU_AGL-120m_RLatLon0.09_PT053H.grib2 2026-04-26 02:55 418K
20260426T00Z_MSC_RDPS_WindU_AGL-40m_RLatLon0.09_PT053H.grib2 2026-04-26 02:55 541K
20260426T00Z_MSC_RDPS_WindU_AGL-80m_RLatLon0.09_PT053H.grib2 2026-04-26 02:55 421K
20260426T00Z_MSC_RDPS_WindU_IsbL-0001_RLatLon0.09_PT053H.grib2 2026-04-26 02:55 293K
20260426T00Z_MSC_RDPS_WindU_IsbL-0005_RLatLon0.09_PT053H.grib2 2026-04-26 02:55 337K
20260426T00Z_MSC_RDPS_WindU_IsbL-0010_RLatLon0.09_PT053H.grib2 2026-04-26 02:55 304K
20260426T00Z_MSC_RDPS_WindU_IsbL-0020_RLatLon0.09_PT053H.grib2 2026-04-26 02:55 359K
20260426T00Z_MSC_RDPS_WindU_IsbL-0030_RLatLon0.09_PT053H.grib2 2026-04-26 02:55 354K
20260426T00Z_MSC_RDPS_WindU_IsbL-0050_RLatLon0.09_PT053H.grib2 2026-04-26 02:55 386K
20260426T00Z_MSC_RDPS_WindU_IsbL-0100_RLatLon0.09_PT053H.grib2 2026-04-26 02:55 343K
20260426T00Z_MSC_RDPS_WindU_IsbL-0150_RLatLon0.09_PT053H.grib2 2026-04-26 02:55 402K
20260426T00Z_MSC_RDPS_WindU_IsbL-0175_RLatLon0.09_PT053H.grib2 2026-04-26 02:55 427K
20260426T00Z_MSC_RDPS_WindU_IsbL-0200_RLatLon0.09_PT053H.grib2 2026-04-26 02:55 442K
20260426T00Z_MSC_RDPS_WindU_IsbL-0225_RLatLon0.09_PT053H.grib2 2026-04-26 02:55 346K
20260426T00Z_MSC_RDPS_WindU_IsbL-0250_RLatLon0.09_PT053H.grib2 2026-04-26 02:55 348K
20260426T00Z_MSC_RDPS_WindU_IsbL-0275_RLatLon0.09_PT053H.grib2 2026-04-26 02:55 362K
20260426T00Z_MSC_RDPS_WindU_IsbL-0300_RLatLon0.09_PT053H.grib2 2026-04-26 02:55 358K
20260426T00Z_MSC_RDPS_WindU_IsbL-0350_RLatLon0.09_PT053H.grib2 2026-04-26 02:55 470K
20260426T00Z_MSC_RDPS_WindU_IsbL-0400_RLatLon0.09_PT053H.grib2 2026-04-26 02:55 473K
20260426T00Z_MSC_RDPS_WindU_IsbL-0450_RLatLon0.09_PT053H.grib2 2026-04-26 02:55 471K
20260426T00Z_MSC_RDPS_WindU_IsbL-0500_RLatLon0.09_PT053H.grib2 2026-04-26 02:55 469K
20260426T00Z_MSC_RDPS_WindU_IsbL-0550_RLatLon0.09_PT053H.grib2 2026-04-26 02:55 470K
20260426T00Z_MSC_RDPS_WindU_IsbL-0600_RLatLon0.09_PT053H.grib2 2026-04-26 02:55 477K
20260426T00Z_MSC_RDPS_WindU_IsbL-0650_RLatLon0.09_PT053H.grib2 2026-04-26 02:55 479K
20260426T00Z_MSC_RDPS_WindU_IsbL-0700_RLatLon0.09_PT053H.grib2 2026-04-26 02:55 498K
20260426T00Z_MSC_RDPS_WindU_IsbL-0750_RLatLon0.09_PT053H.grib2 2026-04-26 02:55 523K
20260426T00Z_MSC_RDPS_WindU_IsbL-0800_RLatLon0.09_PT053H.grib2 2026-04-26 02:55 564K
20260426T00Z_MSC_RDPS_WindU_IsbL-0850_RLatLon0.09_PT053H.grib2 2026-04-26 02:55 617K
20260426T00Z_MSC_RDPS_WindU_IsbL-0875_RLatLon0.09_PT053H.grib2 2026-04-26 02:55 637K
20260426T00Z_MSC_RDPS_WindU_IsbL-0900_RLatLon0.09_PT053H.grib2 2026-04-26 02:55 647K
20260426T00Z_MSC_RDPS_WindU_IsbL-0925_RLatLon0.09_PT053H.grib2 2026-04-26 02:55 657K
20260426T00Z_MSC_RDPS_WindU_IsbL-0950_RLatLon0.09_PT053H.grib2 2026-04-26 02:55 655K
20260426T00Z_MSC_RDPS_WindU_IsbL-0970_RLatLon0.09_PT053H.grib2 2026-04-26 02:55 654K
20260426T00Z_MSC_RDPS_WindU_IsbL-0985_RLatLon0.09_PT053H.grib2 2026-04-26 02:55 651K
20260426T00Z_MSC_RDPS_WindU_IsbL-1000_RLatLon0.09_PT053H.grib2 2026-04-26 02:55 787K
20260426T00Z_MSC_RDPS_WindU_IsbL-1015_RLatLon0.09_PT053H.grib2 2026-04-26 02:55 781K
20260426T00Z_MSC_RDPS_WindV_AGL-10m_RLatLon0.09_PT053H.grib2 2026-04-26 02:55 432K
20260426T00Z_MSC_RDPS_WindV_AGL-120m_RLatLon0.09_PT053H.grib2 2026-04-26 02:55 417K
20260426T00Z_MSC_RDPS_WindV_AGL-40m_RLatLon0.09_PT053H.grib2 2026-04-26 02:55 538K
20260426T00Z_MSC_RDPS_WindV_AGL-80m_RLatLon0.09_PT053H.grib2 2026-04-26 02:55 419K
20260426T00Z_MSC_RDPS_WindV_IsbL-0001_RLatLon0.09_PT053H.grib2 2026-04-26 02:55 292K
20260426T00Z_MSC_RDPS_WindV_IsbL-0005_RLatLon0.09_PT053H.grib2 2026-04-26 02:55 293K
20260426T00Z_MSC_RDPS_WindV_IsbL-0010_RLatLon0.09_PT053H.grib2 2026-04-26 02:55 304K
20260426T00Z_MSC_RDPS_WindV_IsbL-0020_RLatLon0.09_PT053H.grib2 2026-04-26 02:55 321K
20260426T00Z_MSC_RDPS_WindV_IsbL-0030_RLatLon0.09_PT053H.grib2 2026-04-26 02:55 318K
20260426T00Z_MSC_RDPS_WindV_IsbL-0050_RLatLon0.09_PT053H.grib2 2026-04-26 02:55 351K
20260426T00Z_MSC_RDPS_WindV_IsbL-0100_RLatLon0.09_PT053H.grib2 2026-04-26 02:55 338K
20260426T00Z_MSC_RDPS_WindV_IsbL-0150_RLatLon0.09_PT053H.grib2 2026-04-26 02:55 400K
20260426T00Z_MSC_RDPS_WindV_IsbL-0175_RLatLon0.09_PT053H.grib2 2026-04-26 02:55 427K
20260426T00Z_MSC_RDPS_WindV_IsbL-0200_RLatLon0.09_PT053H.grib2 2026-04-26 02:55 344K
20260426T00Z_MSC_RDPS_WindV_IsbL-0225_RLatLon0.09_PT053H.grib2 2026-04-26 02:55 346K
20260426T00Z_MSC_RDPS_WindV_IsbL-0250_RLatLon0.09_PT053H.grib2 2026-04-26 02:55 371K
20260426T00Z_MSC_RDPS_WindV_IsbL-0275_RLatLon0.09_PT053H.grib2 2026-04-26 02:55 384K
20260426T00Z_MSC_RDPS_WindV_IsbL-0300_RLatLon0.09_PT053H.grib2 2026-04-26 02:55 381K
20260426T00Z_MSC_RDPS_WindV_IsbL-0350_RLatLon0.09_PT053H.grib2 2026-04-26 02:55 364K
20260426T00Z_MSC_RDPS_WindV_IsbL-0400_RLatLon0.09_PT053H.grib2 2026-04-26 02:55 367K
20260426T00Z_MSC_RDPS_WindV_IsbL-0450_RLatLon0.09_PT053H.grib2 2026-04-26 02:55 469K
20260426T00Z_MSC_RDPS_WindV_IsbL-0500_RLatLon0.09_PT053H.grib2 2026-04-26 02:55 466K
20260426T00Z_MSC_RDPS_WindV_IsbL-0550_RLatLon0.09_PT053H.grib2 2026-04-26 02:55 466K
20260426T00Z_MSC_RDPS_WindV_IsbL-0600_RLatLon0.09_PT053H.grib2 2026-04-26 02:55 475K
20260426T00Z_MSC_RDPS_WindV_IsbL-0650_RLatLon0.09_PT053H.grib2 2026-04-26 02:55 492K
20260426T00Z_MSC_RDPS_WindV_IsbL-0700_RLatLon0.09_PT053H.grib2 2026-04-26 02:55 510K
20260426T00Z_MSC_RDPS_WindV_IsbL-0750_RLatLon0.09_PT053H.grib2 2026-04-26 02:55 519K
20260426T00Z_MSC_RDPS_WindV_IsbL-0800_RLatLon0.09_PT053H.grib2 2026-04-26 02:55 560K
20260426T00Z_MSC_RDPS_WindV_IsbL-0850_RLatLon0.09_PT053H.grib2 2026-04-26 02:55 612K
20260426T00Z_MSC_RDPS_WindV_IsbL-0875_RLatLon0.09_PT053H.grib2 2026-04-26 02:55 633K
20260426T00Z_MSC_RDPS_WindV_IsbL-0900_RLatLon0.09_PT053H.grib2 2026-04-26 02:55 646K
20260426T00Z_MSC_RDPS_WindV_IsbL-0925_RLatLon0.09_PT053H.grib2 2026-04-26 02:55 655K
20260426T00Z_MSC_RDPS_WindV_IsbL-0950_RLatLon0.09_PT053H.grib2 2026-04-26 02:55 655K
20260426T00Z_MSC_RDPS_WindV_IsbL-0970_RLatLon0.09_PT053H.grib2 2026-04-26 02:55 653K
20260426T00Z_MSC_RDPS_WindV_IsbL-0985_RLatLon0.09_PT053H.grib2 2026-04-26 02:55 649K
20260426T00Z_MSC_RDPS_WindV_IsbL-1000_RLatLon0.09_PT053H.grib2 2026-04-26 02:55 784K
20260426T00Z_MSC_RDPS_WindV_IsbL-1015_RLatLon0.09_PT053H.grib2 2026-04-26 02:55 778K